Meteo pe oră la Kaposvar

Astăzi, 29 Septembrie, Marţi

Timp Temperatura Precipitaţii Vânt Presiune Umiditate
00:00 +10°C° 0 mm 2 m/s 745 mmHg 94%
01:00 +11°C° 0 mm 1 m/s 745 mmHg 95%
02:00 +11°C° 0 mm 1 m/s 745 mmHg 95%
03:00 +9°C° 0 mm 2 m/s 745 mmHg 94%
04:00 +9°C° 0 mm 2 m/s 745 mmHg 94%
05:00 +11°C° 0 mm 1 m/s 746 mmHg 91%
06:00 +11°C° 0 mm 1 m/s 746 mmHg 88%
07:00 +12°C° 0 mm 2 m/s 746 mmHg 85%
08:00 +12°C° 0 mm 2 m/s 746 mmHg 82%
09:00 +12°C° 0 mm 3 m/s 747 mmHg 80%
10:00 +13°C° 0 mm 4 m/s 747 mmHg 77%
11:00 +14°C° 0.1 mm 4 m/s 747 mmHg 72%
12:00 +15°C° 0.1 mm 4 m/s 747 mmHg 66%
13:00 +17°C° 0 mm 4 m/s 747 mmHg 58%
14:00 +17°C° 0.2 mm 3 m/s 747 mmHg 61%
15:00 +16°C° 0.2 mm 3 m/s 746 mmHg 64%
16:00 +16°C° 0.2 mm 3 m/s 746 mmHg 67%
17:00 +14°C° 0 mm 3 m/s 747 mmHg 69%
18:00 +14°C° 0 mm 2 m/s 747 mmHg 71%
19:00 +13°C° 0 mm 2 m/s 747 mmHg 74%
20:00 +13°C° 0 mm 2 m/s 747 mmHg 75%
21:00 +13°C° 0 mm 2 m/s 747 mmHg 76%
22:00 +13°C° 0 mm 2 m/s 747 mmHg 77%
23:00 +12°C° 0.1 mm 3 m/s 747 mmHg 78%

Mâine, 30 Septembrie, Miercuri

Timp Temperatura Precipitaţii Vânt Presiune Umiditate
00:00 +12°C° 0.1 mm 3 m/s 747 mmHg 79%
01:00 +12°C° 0.1 mm 3 m/s 747 mmHg 81%
02:00 +11°C° 0 mm 3 m/s 746 mmHg 81%
03:00 +11°C° 0 mm 3 m/s 746 mmHg 82%
04:00 +11°C° 0 mm 4 m/s 746 mmHg 83%
05:00 +11°C° 0 mm 4 m/s 745 mmHg 81%
06:00 +11°C° 0 mm 4 m/s 745 mmHg 79%
07:00 +12°C° 0 mm 4 m/s 745 mmHg 78%
08:00 +13°C° 0 mm 4 m/s 745 mmHg 73%
09:00 +14°C° 0 mm 5 m/s 745 mmHg 68%
10:00 +15°C° 0 mm 5 m/s 745 mmHg 63%
11:00 +15°C° 0 mm 6 m/s 745 mmHg 61%
12:00 +16°C° 0 mm 6 m/s 744 mmHg 60%
13:00 +17°C° 0 mm 7 m/s 744 mmHg 58%
14:00 +16°C° 0 mm 6 m/s 744 mmHg 60%
15:00 +16°C° 0 mm 6 m/s 743 mmHg 61%
16:00 +16°C° 0 mm 5 m/s 743 mmHg 63%
17:00 +15°C° 0 mm 5 m/s 743 mmHg 66%
18:00 +14°C° 0 mm 4 m/s 743 mmHg 69%
19:00 +14°C° 0 mm 4 m/s 743 mmHg 72%
20:00 +14°C° 0 mm 4 m/s 743 mmHg 73%
21:00 +14°C° 0 mm 4 m/s 743 mmHg 73%
22:00 +14°C° 0 mm 4 m/s 743 mmHg 74%
23:00 +14°C° 0 mm 4 m/s 742 mmHg 74%

Poimâine, 1 Octombrie, Joi

Timp Temperatura Precipitaţii Vânt Presiune Umiditate
00:00 +13°C° 0 mm 4 m/s 742 mmHg 74%
01:00 +13°C° 0 mm 4 m/s 742 mmHg 74%
02:00 +13°C° 0 mm 4 m/s 741 mmHg 74%
03:00 +13°C° 0 mm 4 m/s 741 mmHg 74%
04:00 +13°C° 0 mm 4 m/s 741 mmHg 74%
05:00 +13°C° 0 mm 4 m/s 741 mmHg 74%
06:00 +13°C° 0 mm 4 m/s 741 mmHg 74%
07:00 +13°C° 0 mm 4 m/s 740 mmHg 75%
08:00 +13°C° 0 mm 4 m/s 740 mmHg 71%
09:00 +14°C° 0 mm 4 m/s 740 mmHg 68%
10:00 +15°C° 0 mm 4 m/s 740 mmHg 65%
11:00 +17°C° 0 mm 3 m/s 740 mmHg 60%
12:00 +19°C° 0 mm 3 m/s 739 mmHg 55%
13:00 +20°C° 0 mm 3 m/s 739 mmHg 51%
14:00 +20°C° 0 mm 3 m/s 739 mmHg 50%
15:00 +20°C° 0 mm 3 m/s 739 mmHg 49%
16:00 +21°C° 0 mm 2 m/s 739 mmHg 48%
17:00 +19°C° 0 mm 2 m/s 739 mmHg 55%
18:00 +18°C° 0 mm 1 m/s 739 mmHg 62%
19:00 +15°C° 0 mm 1 m/s 739 mmHg 70%
20:00 +15°C° 0 mm 1 m/s 739 mmHg 74%
21:00 +14°C° 0 mm 1 m/s 739 mmHg 78%
22:00 +14°C° 0 mm 2 m/s 740 mmHg 82%
23:00 +14°C° 0 mm 2 m/s 740 mmHg 85%

2 Octombrie, Vineri

Timp Temperatura Precipitaţii Vânt Presiune Umiditate
00:00 +13°C° 0 mm 2 m/s 740 mmHg 87%
01:00 +13°C° 0 mm 2 m/s 740 mmHg 90%
02:00 +13°C° 0 mm 2 m/s 740 mmHg 91%
03:00 +13°C° 0 mm 2 m/s 740 mmHg 92%
04:00 +13°C° 0 mm 2 m/s 740 mmHg 93%
05:00 +13°C° 0 mm 2 m/s 740 mmHg 92%
06:00 +13°C° 0 mm 2 m/s 740 mmHg 91%
07:00 +14°C° 0 mm 2 m/s 740 mmHg 89%
08:00 +16°C° 0 mm 2 m/s 740 mmHg 81%
09:00 +18°C° 0 mm 3 m/s 740 mmHg 72%
10:00 +20°C° 0 mm 3 m/s 740 mmHg 63%
11:00 +21°C° 0 mm 4 m/s 740 mmHg 58%
12:00 +23°C° 0 mm 4 m/s 740 mmHg 52%
13:00 +25°C° 0 mm 5 m/s 740 mmHg 47%
14:00 +25°C° 0 mm 4 m/s 739 mmHg 48%
15:00 +25°C° 0 mm 3 m/s 739 mmHg 49%
16:00 +25°C° 0 mm 3 m/s 739 mmHg 50%
17:00 +22°C° 0 mm 3 m/s 739 mmHg 55%
18:00 +21°C° 0 mm 3 m/s 739 mmHg 59%
19:00 +19°C° 0 mm 2 m/s 740 mmHg 64%
20:00 +18°C° 0 mm 2 m/s 740 mmHg 66%
21:00 +18°C° 0 mm 2 m/s 740 mmHg 69%
22:00 +17°C° 0 mm 2 m/s 740 mmHg 71%
23:00 +17°C° 0 mm 3 m/s 740 mmHg 70%

3 Octombrie, Sâmbătă

Timp Temperatura Precipitaţii Vânt Presiune Umiditate
00:00 +17°C° 0 mm 3 m/s 739 mmHg 69%
01:00 +17°C° 0 mm 3 m/s 739 mmHg 67%
02:00 +17°C° 0 mm 3 m/s 739 mmHg 68%
03:00 +17°C° 0 mm 4 m/s 739 mmHg 69%
04:00 +17°C° 0 mm 4 m/s 739 mmHg 70%
05:00 +17°C° 0 mm 4 m/s 739 mmHg 70%
06:00 +17°C° 0 mm 4 m/s 739 mmHg 69%
07:00 +16°C° 0 mm 5 m/s 739 mmHg 69%
08:00 +20°C° 0 mm 5 m/s 739 mmHg 62%
09:00 +22°C° 0 mm 6 m/s 739 mmHg 56%
10:00 +26°C° 0 mm 6 m/s 739 mmHg 49%
11:00 +27°C° 0 mm 6 m/s 739 mmHg 46%
12:00 +28°C° 0 mm 6 m/s 739 mmHg 43%
13:00 +29°C° 0 mm 6 m/s 738 mmHg 39%
14:00 +29°C° 0 mm 5 m/s 738 mmHg 40%
15:00 +29°C° 0 mm 5 m/s 738 mmHg 40%
16:00 +29°C° 0 mm 4 m/s 737 mmHg 41%
17:00 +28°C° 0 mm 4 m/s 737 mmHg 44%
18:00 +26°C° 0 mm 4 m/s 737 mmHg 47%
19:00 +25°C° 0 mm 5 m/s 736 mmHg 50%
20:00 +25°C° 0 mm 5 m/s 736 mmHg 50%
21:00 +24°C° 0 mm 6 m/s 736 mmHg 51%
22:00 +23°C° 0 mm 6 m/s 735 mmHg 51%
23:00 +22°C° 0.5 mm 6 m/s 736 mmHg 61%

4 Octombrie, Duminică

Timp Temperatura Precipitaţii Vânt Presiune Umiditate
00:00 +20°C° 0.5 mm 6 m/s 736 mmHg 72%
01:00 +19°C° 0.5 mm 6 m/s 737 mmHg 82%
02:00 +16°C° 2.3 mm 6 m/s 737 mmHg 82%
03:00 +15°C° 2.3 mm 6 m/s 738 mmHg 81%
04:00 +13°C° 2.3 mm 6 m/s 738 mmHg 81%
05:00 +13°C° 0.2 mm 5 m/s 739 mmHg 80%
06:00 +13°C° 0.2 mm 5 m/s 739 mmHg 80%
07:00 +14°C° 0.2 mm 4 m/s 740 mmHg 79%
08:00 +15°C° 0 mm 5 m/s 740 mmHg 72%
09:00 +17°C° 0 mm 5 m/s 740 mmHg 65%
10:00 +19°C° 0 mm 6 m/s 740 mmHg 58%
11:00 +20°C° 0 mm 5 m/s 741 mmHg 53%
12:00 +21°C° 0 mm 5 m/s 741 mmHg 47%
13:00 +22°C° 0 mm 4 m/s 741 mmHg 42%
14:00 +22°C° 0 mm 4 m/s 740 mmHg 44%
15:00 +22°C° 0 mm 3 m/s 740 mmHg 47%
16:00 +23°C° 0 mm 2 m/s 740 mmHg 50%
17:00 +21°C° 0.3 mm 2 m/s 740 mmHg 59%
18:00 +20°C° 0.3 mm 1 m/s 740 mmHg 68%
19:00 +19°C° 0.3 mm 1 m/s 740 mmHg 77%
20:00 +18°C° 0.2 mm 1 m/s 740 mmHg 82%
21:00 +18°C° 0.2 mm 1 m/s 740 mmHg 87%
22:00 +16°C° 0.2 mm 2 m/s 740 mmHg 92%
23:00 +15°C° 0 mm 2 m/s 739 mmHg 86%
Arată mai mult

We Need Your Consent

Meteoprog and our Service Providers may store and access personal data such as cookies, device identifiers or other similar technologies on your device and process such data to personalise content and ads, as well as provide social media features and to analyse the traffic.

  • Store and/or access information on your device

    Cookies, device identifiers or other information can be stored or accessed on your device for the purposes indicated above.

  • Personalised ads and content, ad and content measurement, audience insights, and products development

    Ads and content can be personalised based on a profile. More data can be added to better personalise ads and content. Ad and content performance can be measured. Insights about the audience who saw the ads and content can be derived. Such data can be used to develop or improve user’s experience, systems and software.

By clicking ‘I Agree’ you will allow the use of indicated cookies, device identifiers, web beacons or other similar technologies. Your settings can be changed in the browser on your device.

For certain purposes, legitimate interests may be relied on, rather than consent. You can read more about this in our Privacy and Cookie Policy.